sat.trackr.live / text

‹ back to catalog

STARLINK-6208

NORAD 56895 · 2023-083V

PAYLOAD ACTIVE UNKNOWN

§ Identity

Operator
Country
US
Launch date
2023-06-12
Launch site
AFETR
Launch vehicle
Mass (kg)
RCS (m²)

Purposes: comms

External: N2YO · Heavens-Above · Gunter

§ Orbital elements

Epoch: 2026-05-25T01:03:42.653952Z

Period
94.27 min
Inclination
43.0052°
Eccentricity
0.0001653
Mean motion
15.27573977 rev/d
Perigee alt
481.9 km
Apogee alt
484.2 km
Semi-major
6,861.2 km
B*
-7.7836e-5
RAAN
17.7526°
Arg perigee
250.4999°
Mean anomaly
109.5674°
Rev number
16,326

§ Raw data

STARLINK-62081 56895U 23083V   26145.04424368 -.00002403  00000+0 -77836-4 0  99932 56895  43.0052  17.7526 0001653 250.4999 109.5674 15.27573977163263

JSON: /api/v1/satellites/56895 · /tle

For live sub-satellite position, see the globe view (requires WebGL).

§ Visibility from observer

Set your observer location to see the next 7 days of passes ≥ 10°. The values pass through the URL so the page stays shareable.

No JS? Fill the form by hand. The geolocation button needs JavaScript.